Flag for U.S.A. Weather past 2 weeks in Asheville, North Carolina, U.S.A.

Now
71 °F

Scattered clouds.


Feels Like: 75 °F
Forecast: 62 / 81 °F
Wind: 8 mph from North

Location: Asheville Regional Airport

Current Time: Jun 30, 2015 at 9:44:47 AM

Latest Report: Jun 30, 2015 at 8:54 AM


Visibility: 10 mi

Pressure: 29.99 "Hg

Humidity: 66%

Dew point: 59 °F

Location of AshevilleLocation

Historic Weather in Asheville — Graph

°F

Asheville temperature yesterday

Maximum temperature yesterday: 80 °F (at 2:54 PM)
Minimum temperature yesterday: 55 °F (at 5:54 AM)
Average temperature yesterday: 68 °F

Past Weeks' High & Low Weather Summary

 TemperatureHumidityPressure
High90 °F (Jun 24, 3:54 PM)97% (Jun 18, 5:54 AM)30.21 "Hg (Jun 18, 5:54 AM)
Low55 °F (Jun 29, 5:54 AM)36% (Jun 22, 1:54 PM)29.77 "Hg (Jun 27, 4:54 PM)
Average74 °F71%30.03 "Hg
* Reported Jun 15 7:54 AM — Jun 30 7:54 AM, Asheville, Weather by CustomWeather, © 2015

Note: Actual official high and low records may vary slightly from our data, if they occured in-between our weather recording intervals... More about our weather records

Advertising

Asheville weather history for previous 24 hours

 ConditionsComfort  
Time TempWeatherWind HumidityBarometerVisibility
7:54 AM
Tue, Jun 30
68 °FPartly sunny.13 mph76%29.99 "Hg10 mi
6:54 AM65 °FPassing clouds.5 mph87%29.97 "Hg10 mi
5:54 AM66 °FPassing clouds.No wind81%29.95 "Hg10 mi
4:54 AM65 °FPassing clouds.5 mph85%29.93 "Hg10 mi
3:54 AM66 °FPassing clouds.No wind81%29.93 "Hg10 mi
2:54 AM67 °FPassing clouds.5 mph81%29.94 "Hg10 mi
1:54 AM68 °FPassing clouds.5 mph78%29.94 "Hg10 mi
12:54 AM68 °FPassing clouds.3 mph78%29.96 "Hg10 mi
11:54 PM
Mon, Jun 29
69 °FClear.3 mph76%29.97 "Hg10 mi
10:54 PM71 °FClear.6 mph71%29.97 "Hg10 mi
9:54 PM72 °FMostly cloudy.5 mph68%29.96 "Hg10 mi
8:54 PM74 °FBroken clouds.6 mph64%29.94 "Hg10 mi
7:54 PM75 °FPartly sunny.7 mph62%29.94 "Hg10 mi
6:54 PM77 °FPassing clouds.8 mph56%29.93 "Hg10 mi
5:54 PM78 °FScattered clouds.8 mph54%29.93 "Hg10 mi
4:54 PM77 °FScattered clouds.8 mph54%29.94 "Hg10 mi
3:54 PM78 °FPartly sunny.10 mph48%29.96 "Hg10 mi
2:54 PM80 °FPassing clouds.6 mph41%29.96 "Hg10 mi
1:54 PM77 °FSunny.N/A42%29.98 "Hg10 mi
12:54 PM76 °FSunny.No wind40%30.00 "Hg10 mi
11:54 AM75 °FSunny.5 mph39%30.01 "Hg10 mi
10:54 AM71 °FSunny.No wind55%30.01 "Hg10 mi
9:54 AM69 °FSunny.3 mph61%30.01 "Hg10 mi
Weather by CustomWeather, © 2015

See weather overviewHow to use our weather pages